Scarborough,

3:31 AM AST on January 21, 2018 (GMT -0400)
Scarborough

Weather History for TTCP - January, 2014

Change the Weather History Date:

Sunday, January 5, 2014

  Actual Average Record
Temperature  
Mean Temperature 80 °F -  
Max Temperature 84 °F 83 °F 86 °F (1997)
Min Temperature 75 °F 73 °F 73 °F (2000)
Cooling Degree Days 14    
Growing Degree Days 30 (Base 50)    
Moisture  
Dew Point 71 °F    
Average Humidity 78    
Maximum Humidity 89    
Minimum Humidity 66    
Precipitation  
Precipitation 0.00 in - - ()
Sea Level Pressure  
Sea Level Pressure 29.95 in    
Wind  
Wind Speed 8 mph ()    
Max Wind Speed 17 mph    
Max Gust Speed -    
Visibility 6.1 miles    
Events Rain    
Averages and records for this station are not official NWS values.
T = Trace of Precipitation, MM = Missing Value Source: Averaged Metar Reports

Daily Weather History Graph

Daily Weather History Graph

Search for Another Location

Airport or City:

Trip Planner

Search our weather history database for the weather conditions in past years. The results will help you decide how hot, cold, wet, or windy it might be!

Date:

Astronomy

Jan. 05, 2014 Rise Set
Actual Time 6:23 AM AST 5:53 PM AST
Civil Twilight 6:01 AM AST 6:16 PM AST
Nautical Twilight 5:34 AM AST 6:42 PM AST
Astronomical Twilight 5:08 AM AST 7:09 PM AST
Moon 9:55 AM AST (1/5) 10:16 PM AST (1/5)
Length of Visible Light 12h 15m
Length of Day
11h 30m
Waxing Crescent, 24% of the Moon is Illuminated
Jan 5
Waxing Crescent
Jan 7
First Quarter
Jan 16
Full
Jan 24
Last Quarter
Jan 30
New

Hourly Weather History & Observations

Time (AST) Temp. Heat Index Dew Point Humidity Pressure Visibility Wind Dir Wind Speed Gust Speed Precip Events Conditions
12:00 AM 77.0 °F - 69.8 °F 78% 29.95 in 6.2 mi East 5.8 mph - N/A   Partly Cloudy
1:00 AM 77.0 °F - 69.8 °F 78% 29.92 in 6.2 mi ENE 4.6 mph - N/A   Partly Cloudy
2:00 AM 77.0 °F - 69.8 °F 78% 29.92 in 6.2 mi ENE 9.2 mph - N/A   Partly Cloudy
3:00 AM 77.0 °F - 69.8 °F 78% 29.89 in 6.2 mi ENE 5.8 mph - N/A   Partly Cloudy
4:00 AM 75.2 °F - 69.8 °F 83% 29.89 in 6.2 mi ENE 5.8 mph - N/A   Partly Cloudy
5:00 AM 75.2 °F - 68.0 °F 78% 29.92 in 6.2 mi Calm Calm - N/A   Partly Cloudy
7:00 AM 77.0 °F - 69.8 °F 78% 29.95 in 6.2 mi ENE 5.8 mph - N/A   Partly Cloudy
8:00 AM 80.6 °F 85.4 °F 73.4 °F 79% 29.98 in 6.2 mi ENE 11.5 mph - N/A   Partly Cloudy
9:00 AM 82.4 °F 87.2 °F 71.6 °F 70% 30.01 in 6.2 mi East 11.5 mph - N/A   Partly Cloudy
10:00 AM 84.2 °F 90.9 °F 73.4 °F 70% 30.01 in 6.2 mi East 11.5 mph - N/A   Partly Cloudy
11:00 AM 84.2 °F 89.6 °F 71.6 °F 66% 29.98 in 6.2 mi East 13.8 mph - N/A   Scattered Clouds
12:00 PM 82.4 °F 88.2 °F 73.4 °F 74% 29.98 in 6.2 mi East 16.1 mph - N/A   Scattered Clouds
1:00 PM 84.2 °F 89.6 °F 71.6 °F 66% 29.95 in 6.2 mi East 16.1 mph - N/A   Scattered Clouds
2:00 PM 84.2 °F 90.9 °F 73.4 °F 70% 29.95 in 6.2 mi East 17.3 mph - N/A   Scattered Clouds
3:00 PM 77.0 °F - 69.8 °F 78% 29.92 in 6.2 mi ESE 11.5 mph - N/A   Scattered Clouds
4:00 PM 77.0 °F - 71.6 °F 83% 29.95 in 5.0 mi East 11.5 mph - N/A Rain Light Rain Showers
5:00 PM 78.8 °F - 71.6 °F 78% 29.95 in 5.6 mi East 12.7 mph - N/A   Scattered Clouds
6:00 PM 78.8 °F - 71.6 °F 78% 29.95 in 5.6 mi East 6.9 mph - N/A   Scattered Clouds
7:00 PM 78.8 °F - 71.6 °F 78% 29.95 in 6.2 mi East 8.1 mph - N/A   Scattered Clouds
8:00 PM 75.2 °F - 71.6 °F 89% 29.98 in 6.2 mi NE 5.8 mph - N/A   Scattered Clouds
9:00 PM 75.2 °F - 69.8 °F 83% 29.98 in 6.2 mi ENE 5.8 mph - N/A   Scattered Clouds
10:00 PM 75.2 °F - 71.6 °F 89% 29.98 in 6.2 mi East 9.2 mph - N/A   Partly Cloudy
11:00 PM 75.2 °F - 69.8 °F 83% 29.98 in 6.2 mi ENE 11.5 mph - N/A   Partly Cloudy